Location: Dappach
(48.9767°N, 9.6998°E)
Time: 20:55:20
(UTC+00:00)

Cosmos 2181 Rocket - Pass Details

Date: 23 May 2024
Orbit: 951 x 1015 km, 82.9° (Epoch: 23 June)

Event Time Altitude Azimuth Distance (km) Brightness Sun altitude
Rises 01:48:33 0° 350° (N) 3,746 7.8 -12.7°
Reaches altitude 10° 01:51:07 10° 350° (N) 2,785 7.0 -12.5°
Maximum altitude 01:57:32 89° 262° (W) 998 4.1 -11.8°
Drops below altitude 10° 02:03:48 10° 174° (S) 2,722 5.9 -11.2°
Enters shadow 02:05:55 - 174° (S) 3,524 6.5 -11.0°
